Location: Frydek-Mistek
(49.6830°N, 18.3330°E)
Time: 07:26:33
(UTC+02:00)

Courier 1B Rocket - All Passes

Search period start: 25 June 2017 00:00
Search period end: 05 July 2017 00:00
Orbit: 920 x 1202 km, 28.2° (Epoch: 24 June)

Date Brightness Start Highest point End Pass type
(mag) Time Alt. Az. Time Alt. Az. Time Alt. Az.
25 Jun - 14:46:17 10° S 14:47:07 10° S 14:47:57 10° SSE daylight
26 Jun - 15:37:16 10° SSW 15:38:30 10° S 15:39:43 10° S daylight
27 Jun - 14:35:56 10° SSW 14:37:55 11° S 14:39:52 10° SSE daylight
28 Jun - 13:35:14 10° SSW 13:37:18 11° S 13:39:20 10° SSE daylight
29 Jun - 12:35:11 10° S 12:36:39 11° S 12:38:07 10° SSE daylight
29 Jun - 14:26:31 10° SSW 14:28:41 11° S 14:30:50 10° SSE daylight
30 Jun - 13:25:19 10° SSW 13:28:04 12° S 13:30:45 10° SSE daylight
01 Jul - 12:24:35 10° SSW 12:27:24 12° S 12:30:09 10° SSE daylight
01 Jul - 14:17:42 10° SSW 14:19:26 11° S 14:21:09 10° S daylight
02 Jul - 11:24:22 10° S 11:26:42 12° S 11:29:01 10° SSE daylight
02 Jul - 13:15:57 10° SSW 13:18:48 12° S 13:21:36 10° SSE daylight
03 Jul - 10:25:51 10° SSE 10:26:01 10° SSE 10:26:12 10° SSE daylight
03 Jul - 12:14:51 10° SSW 12:18:07 13° S 12:21:20 10° SSE daylight
04 Jul - 11:14:09 10° SSW 11:17:25 13° S 11:20:39 10° SSE daylight
04 Jul - 13:07:04 10° SSW 13:09:31 12° S 13:11:56 10° S daylight
